OpenBCM V1.13 (Linux)

Packet Radio Mailbox

DB0FHN

[JN59NK Nuernberg]

 Login: GUEST





  
W4DPH  > KEPS     08.02.03 03:27l 277 Lines 7269 Bytes #999 (0) @ AMSAT
BID : ORB03037.D
Read: DB0FHN GUEST
Subj: Orbital Elements  03037.MICROS
Path: DB0FHN<DB0RGB<DB0MRW<DB0ERF<DK0MNL<DB0FBB<DB0GOS<ON0AR<ON0AR<7M3TJZ<
      WB0TAX<W4DPH
Sent: 030208/0117Z @:W4DPH.#TPA.FL.USA.NOAM #:45798 [CLW] FBB $:ORB03037.D
From: W4DPH@W4DPH.#TPA.FL.USA.NOAM
To  : KEPS@AMSAT


HR AMSAT ORBITAL ELEMENTS FOR THE MICROSATS
FROM WA5QGD FORT WORTH,TX February 6, 2003
SEND SUBSCRIBE/UNSUBSCRIBE TO majordomo@amsat.org ONLY
BID: ORB03037.D
TO ALL RADIO AMATEURS BT

Satellite: UO-14
Catalog number: 20437
Epoch time:      03036.70519131
Element set:     158
Inclination:       98.2743 deg
RA of node:        80.9319 deg
Eccentricity:    0.0009819
Arg of perigee:   240.1182 deg
Mean anomaly:     119.9027 deg
Mean motion:   14.31233227 rev/day
Decay rate:       1.34e-06 rev/day^2
Epoch rev:           68065
Checksum:              282

Satellite: AO-16
Catalog number: 20439
Epoch time:      03035.74362252
Element set:     847
Inclination:       98.3200 deg
RA of node:        91.6198 deg
Eccentricity:    0.0010146
Arg of perigee:   248.9900 deg
Mean anomaly:     111.0192 deg
Mean motion:   14.31465874 rev/day
Decay rate:       1.63e-06 rev/day^2
Epoch rev:           68055
Checksum:              288

Satellite: WO-18
Catalog number: 20441
Epoch time:      03037.19300052
Element set:       5
Inclination:       98.3379 deg
RA of node:        96.0928 deg
Eccentricity:    0.0010801
Arg of perigee:   244.5468 deg
Mean anomaly:     115.4598 deg
Mean motion:   14.31548322 rev/day
Decay rate:       1.66e-06 rev/day^2
Epoch rev:           68081
Checksum:              286

Satellite: LO-19
Catalog number: 20442
Epoch time:      03037.73192742
Element set:     957
Inclination:       98.3480 deg
RA of node:        99.6101 deg
Eccentricity:    0.0011060
Arg of perigee:   243.4739 deg
Mean anomaly:     116.5311 deg
Mean motion:   14.31711447 rev/day
Decay rate:       1.67e-06 rev/day^2
Epoch rev:           68094
Checksum:              291

Satellite: UO-22
Catalog number: 21575
Epoch time:      03037.89696772
Element set:     719
Inclination:       98.1396 deg
RA of node:        30.6075 deg
Eccentricity:    0.0007464
Arg of perigee:   161.0683 deg
Mean anomaly:     199.0784 deg
Mean motion:   14.39145081 rev/day
Decay rate:       3.01e-06 rev/day^2
Epoch rev:           60660
Checksum:              317

Satellite: KO-23
Catalog number: 22077
Epoch time:      03036.19572964
Element set:     152
Inclination:       66.0797 deg
RA of node:       153.7301 deg
Eccentricity:    0.0015405
Arg of perigee:   277.6018 deg
Mean anomaly:      82.3251 deg
Mean motion:   12.86407954 rev/day
Decay rate:       -3.7e-07 rev/day^2
Epoch rev:           49258
Checksum:              304

Satellite: AO-27
Catalog number: 22825
Epoch time:      03036.86846092
Element set:     479
Inclination:       98.2755 deg
RA of node:        67.2112 deg
Eccentricity:    0.0007757
Arg of perigee:   301.9633 deg
Mean anomaly:      58.0797 deg
Mean motion:   14.28938145 rev/day
Decay rate:       1.38e-06 rev/day^2
Epoch rev:           48806
Checksum:              338

Satellite: IO-26
Catalog number: 22826
Epoch time:      03037.60082914
Element set:     302
Inclination:       98.2761 deg
RA of node:        69.0162 deg
Eccentricity:    0.0008386
Arg of perigee:   299.5155 deg
Mean anomaly:      60.5186 deg
Mean motion:   14.29161106 rev/day
Decay rate:       1.62e-06 rev/day^2
Epoch rev:           48821
Checksum:              293

Satellite: KO-25
Catalog number: 22828
Epoch time:      03037.65400554
Element set:     419
Inclination:       98.2733 deg
RA of node:        69.3314 deg
Eccentricity:    0.0009257
Arg of perigee:   276.3926 deg
Mean anomaly:      83.6203 deg
Mean motion:   14.29503666 rev/day
Decay rate:       1.18e-06 rev/day^2
Epoch rev:           45642
Checksum:              306

Satellite: TO-31
Catalog number: 25396
Epoch time:      03035.97011131
Element set:    0824
Inclination:      098.6295 deg
RA of node:       113.3420 deg
Eccentricity:    0.0003274
Arg of perigee:   153.1916 deg
Mean anomaly:     206.9434 deg
Mean motion:   14.23506414 rev/day
Decay rate:       -4.3e-07 rev/day^2
Epoch rev:           23759
Checksum:              275

Satellite: GO-32
Catalog number: 25397
Epoch time:      03035.63506632
Element set:    0135
Inclination:      098.6227 deg
RA of node:       111.9131 deg
Eccentricity:    0.0001642
Arg of perigee:   150.2515 deg
Mean anomaly:     209.8757 deg
Mean motion:   14.22956023 rev/day
Decay rate:       -4.3e-07 rev/day^2
Epoch rev:           23751
Checksum:              274

Satellite: UO-36
Catalog number: 25693
Epoch time:      03037.49300089
Element set:     683
Inclination:       64.5578 deg
RA of node:        47.7454 deg
Eccentricity:    0.0019128
Arg of perigee:   316.8177 deg
Mean anomaly:      43.1440 deg
Mean motion:   14.76373138 rev/day
Decay rate:       5.71e-06 rev/day^2
Epoch rev:           20447
Checksum:              316

Satellite: AO-37
Catalog number: 26065
Epoch time:      03037.87228745
Element set:     727
Inclination:      100.2115 deg
RA of node:        90.4754 deg
Eccentricity:    0.0037031
Arg of perigee:   321.3532 deg
Mean anomaly:      38.4998 deg
Mean motion:   14.35503254 rev/day
Decay rate:       1.80e-06 rev/day^2
Epoch rev:           15870
Checksum:              286

Satellite: SO-41
Catalog number: 26545
Epoch time:      03037.50970667
Element set:     408
Inclination:       64.5581 deg
RA of node:        68.9862 deg
Eccentricity:    0.0052975
Arg of perigee:   240.7303 deg
Mean anomaly:     118.8474 deg
Mean motion:   14.78946714 rev/day
Decay rate:      1.147e-05 rev/day^2
Epoch rev:           12743
Checksum:              330

Satellite: MO-46
Catalog number: 26548
Epoch time:      03036.60561965
Element set:     411
Inclination:       64.5570 deg
RA of node:        64.7977 deg
Eccentricity:    0.0046210
Arg of perigee:   240.1194 deg
Mean anomaly:     119.5303 deg
Mean motion:   14.81223257 rev/day
Decay rate:      1.672e-05 rev/day^2
Epoch rev:           12744
Checksum:              292

Satellite: SO-42
Catalog number: 26549
Epoch time:      03037.53712499
Element set:     685
Inclination:       64.5538 deg
RA of node:        72.9544 deg
Eccentricity:    0.0057261
Arg of perigee:   241.0172 deg
Mean anomaly:     118.5186 deg
Mean motion:   14.77885754 rev/day
Decay rate:      1.128e-05 rev/day^2
Epoch rev:           12736
Checksum:              330

Satellite: NO-44
Catalog number: 26931
Epoch time:      03037.90780475
Element set:     395
Inclination:       67.0481 deg
RA of node:       285.6356 deg
Eccentricity:    0.0005000
Arg of perigee:   262.1725 deg
Mean anomaly:      97.8808 deg
Mean motion:   14.29108660 rev/day
Decay rate:       1.83e-06 rev/day^2
Epoch rev:            7068
Checksum:              310

Satellite: AO-49
Catalog number: 27605
Epoch time:      03037.61768491
Element set:      49
Inclination:       64.5542 deg
RA of node:       233.5306 deg
Eccentricity:    0.0032230
Arg of perigee:   118.9815 deg
Mean anomaly:     241.4424 deg
Mean motion:   14.71346691 rev/day
Decay rate:     -3.365e-05 rev/day^2
Epoch rev:             705
Checksum:              294

Satellite: SO-50
Catalog number: 27607
Epoch time:      03036.98788045
Element set:      45
Inclination:       64.5527 deg
RA of node:       235.7923 deg
Eccentricity:    0.0038188
Arg of perigee:   116.0368 deg
Mean anomaly:     244.4676 deg
Mean motion:   14.69867499 rev/day
Decay rate:       9.08e-06 rev/day^2
Epoch rev:             695
Checksum:              353



Read previous mail | Read next mail


 13.06.2026 23:20:42lGo back Go up